ACA414 CYYZ-CYUL

Flight info

Callsign ACA414
Flight time 0h 55m
Altitude 33000
Route DEDKI5 MIGLO HABBS7
Aircraft A321/M-SDE3FGHIRWY/LB1

Departure

Time 2026-05-04 18:04
Airport Toronto Pearson International Airport (CYYZ)

Arrival

Time 2026-05-04 18:59
Airport Montreal / Pierre Elliott Trudeau International Airport (CYUL)
Time Latitude Longitude Altitude Speed Heading
2026-05-04 17:26 43.68024 -79.61709 572 ft 0 kts 136°
2026-05-04 17:54 43.68032 -79.61719 570 ft 4 kts 136°
2026-05-04 17:54 43.68051 -79.61744 565 ft 4 kts 136°
2026-05-04 17:54 43.68067 -79.61765 570 ft 4 kts 152°
2026-05-04 17:55 43.68091 -79.61771 570 ft 4 kts 202°
2026-05-04 17:55 43.68111 -79.61752 570 ft 2 kts 226°
2026-05-04 17:55 43.68112 -79.61750 570 ft 0 kts 226°
2026-05-04 17:57 43.68112 -79.61751 570 ft 0 kts 226°
2026-05-04 17:57 43.68109 -79.61755 569 ft 3 kts 226°
2026-05-04 17:57 43.68082 -79.61793 571 ft 8 kts 226°
2026-05-04 17:58 43.68029 -79.61870 569 ft 12 kts 226°
2026-05-04 17:58 43.67987 -79.61967 566 ft 12 kts 253°
2026-05-04 17:58 43.67968 -79.62090 563 ft 16 kts 294°
2026-05-04 17:58 43.68068 -79.62227 570 ft 22 kts 316°
2026-05-04 17:59 43.68175 -79.62366 562 ft 21 kts 316°
2026-05-04 17:59 43.68280 -79.62491 567 ft 19 kts 319°
2026-05-04 17:59 43.68463 -79.62728 564 ft 19 kts 316°
2026-05-04 18:00 43.68565 -79.62861 568 ft 20 kts 317°
2026-05-04 18:00 43.68664 -79.62990 570 ft 19 kts 316°
2026-05-04 18:00 43.68756 -79.63111 562 ft 18 kts 317°
2026-05-04 18:00 43.68843 -79.63224 567 ft 17 kts 316°
2026-05-04 18:01 43.68925 -79.63330 570 ft 15 kts 316°
2026-05-04 18:01 43.69017 -79.63450 567 ft 23 kts 316°
2026-05-04 18:01 43.69124 -79.63516 570 ft 15 kts 28°
2026-05-04 18:02 43.69292 -79.63422 568 ft 10 kts
2026-05-04 18:02 43.69333 -79.63420 562 ft 5 kts
2026-05-04 18:02 43.69371 -79.63445 561 ft 10 kts 320°
2026-05-04 18:02 43.69394 -79.63536 568 ft 11 kts 243°
2026-05-04 18:03 43.69379 -79.63561 564 ft 0 kts 225°
2026-05-04 18:03 43.69334 -79.63625 566 ft 33 kts 227°
2026-05-04 18:03 43.69026 -79.64070 567 ft 94 kts 226°
2026-05-04 18:03 43.68448 -79.64906 567 ft 141 kts 226°
2026-05-04 18:04 43.67708 -79.65966 786 ft 159 kts 225°
2026-05-04 18:04 43.66978 -79.67112 1438 ft 153 kts 230°
2026-05-04 18:04 43.65930 -79.69469 2689 ft 142 kts 237°
2026-05-04 18:05 43.65381 -79.70642 3038 ft 154 kts 234°
2026-05-04 18:05 43.64690 -79.71884 3170 ft 172 kts 225°
2026-05-04 18:05 43.63540 -79.72589 3288 ft 202 kts 187°
2026-05-04 18:05 43.62083 -79.71971 3535 ft 240 kts 157°
2026-05-04 18:06 43.59188 -79.68960 4601 ft 273 kts 147°
2026-05-04 18:06 43.57736 -79.67234 5344 ft 278 kts 146°
2026-05-04 18:06 43.56258 -79.65486 6096 ft 282 kts 147°
2026-05-04 18:07 43.54742 -79.63735 6777 ft 287 kts 147°
2026-05-04 18:07 43.53189 -79.61963 7474 ft 293 kts 144°
2026-05-04 18:07 43.51879 -79.59742 8170 ft 306 kts 123°
2026-05-04 18:07 43.51155 -79.56946 8903 ft 315 kts 101°
2026-05-04 18:08 43.51178 -79.53919 9622 ft 320 kts 78°
2026-05-04 18:08 43.51736 -79.50943 10230 ft 326 kts 74°
2026-05-04 18:08 43.52349 -79.47823 10370 ft 349 kts 74°
2026-05-04 18:08 43.52998 -79.44491 10522 ft 370 kts 74°
2026-05-04 18:09 43.54426 -79.37541 11713 ft 381 kts 72°
2026-05-04 18:09 43.56029 -79.30507 13103 ft 388 kts 71°
2026-05-04 18:10 43.56852 -79.26946 13784 ft 392 kts 71°
2026-05-04 18:10 43.57677 -79.23347 14393 ft 395 kts 71°
2026-05-04 18:10 43.58223 -79.20943 14781 ft 398 kts 71°
2026-05-04 18:10 43.59045 -79.17279 15353 ft 402 kts 71°
2026-05-04 18:11 43.59868 -79.13578 15916 ft 406 kts 71°
2026-05-04 18:11 43.60694 -79.09839 16475 ft 409 kts 71°
2026-05-04 18:11 43.61526 -79.06064 17008 ft 413 kts 71°
2026-05-04 18:11 43.62363 -79.02256 17544 ft 417 kts 71°
2026-05-04 18:12 43.63206 -78.98412 18071 ft 420 kts 71°
2026-05-04 18:12 43.64057 -78.94535 18519 ft 424 kts 71°
2026-05-04 18:12 43.64914 -78.90626 18973 ft 427 kts 71°
2026-05-04 18:12 43.65777 -78.86690 19417 ft 430 kts 71°
2026-05-04 18:13 43.66649 -78.82722 19864 ft 433 kts 71°
2026-05-04 18:13 43.67528 -78.78728 20313 ft 436 kts 70°
2026-05-04 18:13 43.69383 -78.70697 21189 ft 441 kts 64°
2026-05-04 18:14 43.70589 -78.66792 21630 ft 443 kts 63°
2026-05-04 18:14 43.71804 -78.62863 22088 ft 445 kts 63°
2026-05-04 18:14 43.73021 -78.58909 22534 ft 448 kts 63°
2026-05-04 18:15 43.75468 -78.50928 23379 ft 454 kts 63°
2026-05-04 18:15 43.77946 -78.42853 24087 ft 458 kts 63°
2026-05-04 18:15 43.79195 -78.38781 24456 ft 460 kts 63°
2026-05-04 18:16 43.80445 -78.34691 24820 ft 462 kts 63°
2026-05-04 18:16 43.81693 -78.30581 25179 ft 464 kts 63°
2026-05-04 18:16 43.82944 -78.26448 25529 ft 467 kts 63°
2026-05-04 18:17 43.85445 -78.18171 26217 ft 471 kts 63°
2026-05-04 18:17 43.86714 -78.13978 26565 ft 473 kts 63°
2026-05-04 18:17 43.89268 -78.05532 27238 ft 477 kts 63°
2026-05-04 18:18 43.90549 -78.01277 27567 ft 479 kts 63°
2026-05-04 18:18 43.91833 -77.97002 27868 ft 481 kts 63°
2026-05-04 18:18 43.93124 -77.92709 28218 ft 483 kts 63°
2026-05-04 18:18 43.94415 -77.88402 28543 ft 484 kts 63°
2026-05-04 18:19 43.96998 -77.79726 29154 ft 488 kts 63°
2026-05-04 18:19 43.98295 -77.75356 29438 ft 491 kts 63°
2026-05-04 18:19 43.99597 -77.70971 29745 ft 492 kts 63°
2026-05-04 18:20 44.00899 -77.66583 30112 ft 491 kts 63°
2026-05-04 18:20 44.02193 -77.62205 30495 ft 489 kts 62°
2026-05-04 18:20 44.03484 -77.57838 30905 ft 487 kts 62°
2026-05-04 18:20 44.04770 -77.53493 31332 ft 485 kts 62°
2026-05-04 18:21 44.06050 -77.49166 31758 ft 483 kts 61°
2026-05-04 18:21 44.07337 -77.44867 32177 ft 479 kts 58°
2026-05-04 18:21 44.08893 -77.40830 32575 ft 469 kts 50°
2026-05-04 18:21 44.10657 -77.37026 32990 ft 466 kts 49°
2026-05-04 18:22 44.12395 -77.33303 33405 ft 464 kts 49°
2026-05-04 18:22 44.14148 -77.29551 33803 ft 462 kts 49°
2026-05-04 18:22 44.15892 -77.25805 34110 ft 461 kts 49°
2026-05-04 18:22 44.17635 -77.22056 34389 ft 461 kts 49°
2026-05-04 18:23 44.19374 -77.18306 34654 ft 461 kts 49°
2026-05-04 18:23 44.21112 -77.14548 34740 ft 460 kts 49°
2026-05-04 18:23 44.24560 -77.07064 34766 ft 458 kts 50°
2026-05-04 18:24 44.27997 -76.99588 34761 ft 458 kts 50°
2026-05-04 18:24 44.31429 -76.92111 34761 ft 458 kts 50°
2026-05-04 18:25 44.34861 -76.84614 34761 ft 458 kts 50°
2026-05-04 18:25 44.38287 -76.77109 34772 ft 458 kts 50°
2026-05-04 18:26 44.41705 -76.69600 34799 ft 457 kts 50°
2026-05-04 18:26 44.45119 -76.62088 34778 ft 458 kts 50°
2026-05-04 18:27 44.48523 -76.54558 34763 ft 458 kts 50°
2026-05-04 18:27 44.51925 -76.47011 34752 ft 458 kts 50°
2026-05-04 18:28 44.55304 -76.39519 34748 ft 458 kts 50°
2026-05-04 18:28 44.58703 -76.31967 34760 ft 458 kts 50°
2026-05-04 18:29 44.62091 -76.24393 34760 ft 458 kts 50°
2026-05-04 18:29 44.64999 -76.16333 34752 ft 468 kts 60°
2026-05-04 18:30 44.68727 -76.03656 34744 ft 468 kts 60°
2026-05-04 18:31 44.71194 -75.95184 34763 ft 469 kts 61°
2026-05-04 18:31 44.73514 -75.86591 34734 ft 471 kts 63°
2026-05-04 18:32 44.75758 -75.77933 34729 ft 471 kts 63°
2026-05-04 18:32 44.78031 -75.69278 34041 ft 477 kts 62°
2026-05-04 18:32 44.79205 -75.64863 32739 ft 484 kts 62°
2026-05-04 18:33 44.80395 -75.60400 31256 ft 488 kts 63°
2026-05-04 18:33 44.81578 -75.55938 30021 ft 484 kts 64°
2026-05-04 18:33 44.82724 -75.51565 29431 ft 465 kts 64°
2026-05-04 18:33 44.83811 -75.47380 28922 ft 445 kts 64°
2026-05-04 18:34 44.84869 -75.43379 28419 ft 427 kts 63°
2026-05-04 18:34 44.85929 -75.39564 27948 ft 412 kts 62°
2026-05-04 18:34 44.87015 -75.35804 27467 ft 415 kts 62°
2026-05-04 18:34 44.88107 -75.32063 26998 ft 411 kts 62°
2026-05-04 18:35 44.89187 -75.28340 26523 ft 409 kts 62°
2026-05-04 18:35 44.90247 -75.24638 26059 ft 406 kts 62°
2026-05-04 18:35 44.91288 -75.20958 25607 ft 403 kts 63°
2026-05-04 18:35 44.92301 -75.17345 25181 ft 400 kts 63°
2026-05-04 18:36 44.93317 -75.13706 24723 ft 397 kts 63°
2026-05-04 18:36 44.94326 -75.10083 24316 ft 394 kts 63°
2026-05-04 18:36 44.95326 -75.06486 23901 ft 392 kts 63°
2026-05-04 18:36 44.96338 -75.02863 23600 ft 405 kts 63°
2026-05-04 18:37 44.97385 -74.99140 23016 ft 409 kts 64°
2026-05-04 18:37 44.98446 -74.95451 22612 ft 401 kts 60°
2026-05-04 18:37 44.99741 -74.92027 22244 ft 391 kts 55°
2026-05-04 18:37 45.01056 -74.88730 22052 ft 379 kts 54°
2026-05-04 18:38 45.02341 -74.85504 21670 ft 375 kts 55°
2026-05-04 18:38 45.03615 -74.82305 21293 ft 373 kts 55°
2026-05-04 18:38 45.04884 -74.79115 20908 ft 372 kts 55°
2026-05-04 18:38 45.06150 -74.75933 20494 ft 370 kts 55°
2026-05-04 18:39 45.07412 -74.72764 20088 ft 369 kts 55°
2026-05-04 18:39 45.08668 -74.69605 19679 ft 368 kts 55°
2026-05-04 18:39 45.09917 -74.66452 19279 ft 367 kts 56°
2026-05-04 18:39 45.11160 -74.63305 18880 ft 366 kts 56°
2026-05-04 18:40 45.12412 -74.60175 18484 ft 364 kts 54°
2026-05-04 18:40 45.13716 -74.57108 18051 ft 363 kts 53°
2026-05-04 18:40 45.15053 -74.54083 17604 ft 361 kts 53°
2026-05-04 18:40 45.16394 -74.51083 17204 ft 360 kts 53°
2026-05-04 18:41 45.17726 -74.48092 16804 ft 358 kts 53°
2026-05-04 18:41 45.19049 -74.45103 16405 ft 357 kts 53°
2026-05-04 18:41 45.20359 -74.42122 16063 ft 357 kts 53°
2026-05-04 18:41 45.21710 -74.39045 15604 ft 375 kts 53°
2026-05-04 18:42 45.23092 -74.35869 14966 ft 380 kts 54°
2026-05-04 18:42 45.24472 -74.32657 14432 ft 382 kts 54°
2026-05-04 18:42 45.25860 -74.29423 13886 ft 385 kts 54°
2026-05-04 18:42 45.27255 -74.26177 13317 ft 386 kts 54°
2026-05-04 18:43 45.28655 -74.22923 12746 ft 387 kts 54°
2026-05-04 18:43 45.30055 -74.19665 12268 ft 384 kts 54°
2026-05-04 18:43 45.31440 -74.16435 11709 ft 384 kts 54°
2026-05-04 18:43 45.32816 -74.13223 11337 ft 378 kts 54°
2026-05-04 18:44 45.34161 -74.10082 10843 ft 376 kts 54°
2026-05-04 18:44 45.35078 -74.07940 10595 ft 373 kts 53°
2026-05-04 18:44 45.37110 -74.04261 10426 ft 338 kts 37°
2026-05-04 18:44 45.38782 -74.02075 10109 ft 318 kts 35°
2026-05-04 18:45 45.40387 -73.99986 9548 ft 308 kts 35°
2026-05-04 18:45 45.41901 -73.98011 9379 ft 284 kts 34°
2026-05-04 18:45 45.43324 -73.96155 8987 ft 272 kts 34°
2026-05-04 18:45 45.44717 -73.94356 8536 ft 269 kts 35°
2026-05-04 18:46 45.46100 -73.92572 8140 ft 267 kts 36°
2026-05-04 18:46 45.47457 -73.90815 7833 ft 258 kts 36°
2026-05-04 18:46 45.48759 -73.89117 7451 ft 252 kts 37°
2026-05-04 18:46 45.50051 -73.87439 7058 ft 250 kts 37°
2026-05-04 18:47 45.51336 -73.85768 6691 ft 250 kts 38°
2026-05-04 18:47 45.52612 -73.84103 6335 ft 248 kts 38°
2026-05-04 18:47 45.53879 -73.82445 5968 ft 246 kts 38°
2026-05-04 18:47 45.55138 -73.80800 5607 ft 245 kts 38°
2026-05-04 18:48 45.56388 -73.79162 5257 ft 244 kts 38°
2026-05-04 18:48 45.57635 -73.77527 4909 ft 242 kts 39°
2026-05-04 18:48 45.58869 -73.75907 4561 ft 241 kts 38°
2026-05-04 18:48 45.60104 -73.74285 4368 ft 240 kts 38°
2026-05-04 18:49 45.61338 -73.72660 4304 ft 241 kts 38°
2026-05-04 18:49 45.62567 -73.71040 4215 ft 240 kts 39°
2026-05-04 18:49 45.63793 -73.69426 4106 ft 240 kts 38°
2026-05-04 18:49 45.65024 -73.67814 3981 ft 239 kts 39°
2026-05-04 18:50 45.66244 -73.66212 3983 ft 239 kts 39°
2026-05-04 18:50 45.67474 -73.64594 3980 ft 241 kts 39°
2026-05-04 18:50 45.68698 -73.62978 3980 ft 239 kts 39°
2026-05-04 18:50 45.69923 -73.61360 3884 ft 240 kts 39°
2026-05-04 18:51 45.71135 -73.59743 3643 ft 237 kts 40°
2026-05-04 18:51 45.72090 -73.57814 3501 ft 241 kts 67°
2026-05-04 18:51 45.72322 -73.55484 3344 ft 233 kts 98°
2026-05-04 18:51 45.71807 -73.53363 3189 ft 223 kts 126°
2026-05-04 18:52 45.70742 -73.51834 3066 ft 214 kts 153°
2026-05-04 18:52 45.69406 -73.51113 2996 ft 205 kts 177°
2026-05-04 18:52 45.67995 -73.51198 3009 ft 199 kts 195°
2026-05-04 18:52 45.66623 -73.51507 3004 ft 200 kts 194°
2026-05-04 18:53 45.65270 -73.51802 3006 ft 200 kts 194°
2026-05-04 18:53 45.63889 -73.52101 3006 ft 200 kts 193°
2026-05-04 18:53 45.62563 -73.52619 3003 ft 193 kts 207°
2026-05-04 18:53 45.61506 -73.53563 2991 ft 168 kts 223°
2026-05-04 18:54 45.60667 -73.54578 3001 ft 151 kts 225°
2026-05-04 18:54 45.59897 -73.55563 3004 ft 147 kts 226°
2026-05-04 18:54 45.59156 -73.56529 3010 ft 143 kts 226°
2026-05-04 18:54 45.58428 -73.57484 2947 ft 142 kts 226°
2026-05-04 18:55 45.57704 -73.58437 2806 ft 141 kts 227°
2026-05-04 18:55 45.56271 -73.60325 2455 ft 139 kts 227°
2026-05-04 18:55 45.55556 -73.61268 2263 ft 139 kts 227°
2026-05-04 18:56 45.54844 -73.62206 2087 ft 139 kts 227°
2026-05-04 18:56 45.54133 -73.63143 1891 ft 139 kts 227°
2026-05-04 18:56 45.53421 -73.64079 1707 ft 139 kts 227°
2026-05-04 18:56 45.52717 -73.65006 1515 ft 139 kts 226°
2026-05-04 18:57 45.52009 -73.65938 1328 ft 139 kts 225°
2026-05-04 18:57 45.51304 -73.66865 1130 ft 140 kts 226°
2026-05-04 18:57 45.50591 -73.67798 940 ft 139 kts 225°
2026-05-04 18:57 45.49857 -73.68705 783 ft 143 kts 221°
2026-05-04 18:58 45.49163 -73.69675 644 ft 139 kts 229°
2026-05-04 18:58 45.48459 -73.70621 490 ft 139 kts 218°
2026-05-04 18:58 45.47739 -73.71549 206 ft 139 kts 221°
2026-05-04 18:58 45.47078 -73.72421 119 ft 119 kts 222°
2026-05-04 18:59 45.46606 -73.73037 112 ft 66 kts 222°
2026-05-04 18:59 45.46324 -73.73410 110 ft 38 kts 221°
2026-05-04 18:59 45.46171 -73.73639 110 ft 23 kts 250°
2026-05-04 18:59 45.46151 -73.73775 108 ft 8 kts 263°
2026-05-04 19:00 45.46147 -73.73856 107 ft 9 kts 268°
2026-05-04 19:00 45.46145 -73.73945 106 ft 9 kts 268°
2026-05-04 19:00 45.46143 -73.74040 105 ft 10 kts 268°
2026-05-04 19:00 45.46140 -73.74141 104 ft 11 kts 266°
2026-05-04 19:01 45.46107 -73.74235 102 ft 11 kts 227°
2026-05-04 19:01 45.46053 -73.74319 101 ft 11 kts 227°
2026-05-04 19:01 45.46015 -73.74380 103 ft 6 kts 230°
2026-05-04 19:01 45.45996 -73.74422 103 ft 4 kts 242°
2026-05-04 19:02 45.45988 -73.74444 104 ft 4 kts 243°
2026-05-04 19:02 45.45974 -73.74495 104 ft 6 kts 255°
2026-05-04 19:02 45.45963 -73.74539 103 ft 4 kts 227°
2026-05-04 19:02 45.45922 -73.74546 105 ft 7 kts 178°
2026-05-04 19:03 45.45889 -73.74544 105 ft 0 kts 178°